This is the latest recevied weather packets stored in our database for station/object CTLRVL-WX. If no packets are shown the sender has not sent any weather packets the latest 10 day(s).
| Time | Temp. | Humidity | Pressure | Rain* | Wind** | Luminosity | Snow |
|---|---|---|---|---|---|---|---|
| 1788150666 | 69° F | 84% | 742.9 mmHg | 0 in | - | - | - |
| 1788149760 | 69° F | 84% | 742.9 mmHg | 0 in | - | - | - |
| 1788148866 | 69° F | 84% | 742.9 mmHg | 0 in | - | - | - |
| 1788147961 | 70° F | 83% | 742.3 mmHg | 0 in | - | - | - |
| 1788147375 | 70° F | 83% | 742.3 mmHg | 0 in | - | - | - |
| 1788146166 | 70° F | 77% | 742.3 mmHg | 0 in | - | - | - |
| 1788145266 | 71° F | 77% | 742.3 mmHg | 0 in | - | - | - |
| 1788144364 | 71° F | 79% | 742.4 mmHg | 0 in | - | - | - |
| 1788143466 | 71° F | 78% | 742.6 mmHg | 0 in | - | - | - |
| 1788142564 | 71° F | 78% | 742.6 mmHg | 0 in | - | - | - |
| 1788141974 | 71° F | 78% | 742.6 mmHg | 0 in | - | - | - |
| 1788140765 | 71° F | 85% | 742.2 mmHg | 0 in | - | - | - |
| 1788139867 | 71° F | 85% | 742.2 mmHg | 0 in | - | - | - |
| 1788138060 | 72° F | 85% | 742.2 mmHg | 0 in | - | - | - |
| 1788137164 | 72° F | 79% | 742.4 mmHg | 0 in | - | - | - |
| 1788136264 | 73° F | 77% | 742.6 mmHg | 0 in | - | - | - |
| 1788135362 | 73° F | 77% | 742.6 mmHg | 0 in | - | - | - |
| 1788134472 | 74° F | 77% | 742.6 mmHg | 0 in | - | - | - |
| 1788132667 | 76° F | 69% | 742.6 mmHg | 0 in | - | - | - |
| 1788131763 | 77° F | 69% | 742.6 mmHg | 0 in | - | - | - |
| 1788130866 | 77° F | 69% | 742.6 mmHg | 0 in | - | - | - |
| 1788129966 | 78° F | 63% | 742.9 mmHg | 0 in | - | - | - |
| 1788129067 | 77° F | 66% | 743.1 mmHg | 0 in | - | - | - |
| 1788128166 | 76° F | 66% | 743.1 mmHg | 0 in | - | - | - |
| 1788127271 | 77° F | 66% | 743.1 mmHg | 0 in | - | - | - |
* Rain latest hour (hover to see other rain measurements)
** Current wind speed in m/s (hover to see current wind gust speed)